Punta Gorda, FL

11:01 AM EDT on April 28, 2017 (GMT -0400)
Charlotte County

Weather History for KPGD - February, 2012

Change the Weather History Date:

Saturday, February 11, 2012

  Actual Average Record
Temperature  
Mean Temperature 62 °F -  
Max Temperature 70 °F 73 °F 86 °F (2001)
Min Temperature 53 °F 51 °F 39 °F (2016)
Degree Days  
Heating Degree Days 4    
Growing Degree Days 12 (Base 50)    
Moisture  
Dew Point 56 °F    
Average Humidity 80    
Maximum Humidity 100    
Minimum Humidity 51    
Precipitation  
Precipitation 0.15 in - - ()
Sea Level Pressure  
Sea Level Pressure 30.01 in    
Wind  
Wind Speed 7 mph (NNW)    
Max Wind Speed 21 mph    
Max Gust Speed 31 mph    
Visibility 9 miles    
Events Rain    
Averages and records for this station are not official NWS values.
T = Trace of Precipitation, MM = Missing Value Source: NWS Daily Summary

Daily Weather History Graph

Daily Weather History Graph

Search for Another Location

Airport or City:

Trip Planner

Search our weather history database for the weather conditions in past years. The results will help you decide how hot, cold, wet, or windy it might be!

Date:

Astronomy

Feb. 11, 2012 Rise Set
Actual Time 7:07 AM EST 6:17 PM EST
Civil Twilight 6:43 AM EST 6:40 PM EST
Nautical Twilight 6:16 AM EST 7:08 PM EST
Astronomical Twilight 5:49 AM EST 7:35 PM EST
Moon 10:29 PM EST (2/11) 9:19 AM EST (2/11)
Length of Visible Light 11h 57m
Length of Day
11h 09m
Waning Gibbous, 82% of the Moon is Illuminated
Feb 11
Waning Gibbous
Feb 14
Last Quarter
Feb 21
New
Feb 29
First Quarter
Mar 8
Full

Hourly Weather History & Observations

Time (EST) Temp. Dew Point Humidity Pressure Visibility Wind Dir Wind Speed Gust Speed Precip Events Conditions
12:53 AM 66.0 °F 63.0 °F 90% 30.00 in 10.0 mi NNW 8.1 mph 16.1 mph 0.14 in Rain Light Rain
1:05 AM 64.4 °F 62.6 °F 94% 29.99 in 10.0 mi North 4.6 mph - 0.00 in   Overcast
1:53 AM 64.9 °F 63.0 °F 93% 29.96 in 10.0 mi SW 4.6 mph - 0.00 in Rain Light Rain
2:53 AM 64.9 °F 63.0 °F 93% 29.94 in 10.0 mi Calm Calm - 0.01 in   Partly Cloudy
3:18 AM 64.4 °F 62.6 °F 94% 29.94 in 8.0 mi Calm Calm - N/A   Scattered Clouds
3:23 AM 64.4 °F 64.4 °F 100% 29.94 in 9.0 mi Calm Calm - N/A   Mostly Cloudy
3:53 AM 64.9 °F 63.0 °F 93% 29.94 in 9.0 mi NNW 4.6 mph - N/A   Mostly Cloudy
4:16 AM 64.4 °F 62.6 °F 94% 29.93 in 10.0 mi NW 5.8 mph - N/A   Overcast
4:53 AM 64.0 °F 62.1 °F 93% 29.94 in 10.0 mi Calm Calm - N/A   Overcast
5:14 AM 64.4 °F 62.6 °F 94% 29.93 in 10.0 mi Calm Calm - N/A   Overcast
5:25 AM 64.4 °F 62.6 °F 94% 29.93 in 10.0 mi Calm Calm - N/A   Mostly Cloudy
5:53 AM 64.0 °F 62.1 °F 93% 29.94 in 10.0 mi Calm Calm - N/A   Partly Cloudy
6:53 AM 62.1 °F 61.0 °F 96% 29.96 in 4.0 mi NW 3.5 mph - N/A   Partly Cloudy
7:07 AM 60.8 °F 60.8 °F 100% 29.97 in 9.0 mi NW 4.6 mph - N/A   Mostly Cloudy
7:41 AM 62.6 °F 62.6 °F 100% 29.99 in 8.0 mi NNW 8.1 mph - N/A   Overcast
7:53 AM 63.0 °F 61.0 °F 93% 30.00 in 7.0 mi NNW 10.4 mph - N/A   Overcast
8:25 AM 60.8 °F 57.2 °F 88% 30.02 in 9.0 mi NNW 10.4 mph - N/A   Overcast
8:53 AM 61.0 °F 57.9 °F 90% 30.03 in 9.0 mi North 8.1 mph - N/A   Overcast
9:53 AM 63.0 °F 57.0 °F 81% 30.05 in 10.0 mi NNW 13.8 mph - N/A   Overcast
10:37 AM 64.4 °F 55.4 °F 73% 30.05 in 10.0 mi NNW 13.8 mph 20.7 mph N/A   Mostly Cloudy
10:53 AM 64.9 °F 55.0 °F 70% 30.06 in 10.0 mi NNW 9.2 mph 19.6 mph N/A   Mostly Cloudy
11:45 AM 66.2 °F 55.4 °F 68% 30.05 in 10.0 mi North 11.5 mph - N/A   Mostly Cloudy
11:53 AM 68.0 °F 54.0 °F 61% 30.04 in 10.0 mi North 9.2 mph - N/A   Scattered Clouds
12:53 PM 69.1 °F 51.1 °F 53% 30.01 in 10.0 mi NW 16.1 mph 23.0 mph N/A   Scattered Clouds
1:53 PM 70.0 °F 51.1 °F 51% 30.00 in 10.0 mi North 12.7 mph - N/A   Mostly Cloudy
2:53 PM 70.0 °F 51.1 °F 51% 29.99 in 10.0 mi NW 19.6 mph 25.3 mph N/A   Partly Cloudy
3:53 PM 66.9 °F 48.9 °F 52% 30.00 in 10.0 mi NW 19.6 mph 27.6 mph N/A   Scattered Clouds
4:53 PM 64.9 °F 50.0 °F 58% 30.00 in 10.0 mi NW 20.7 mph 28.8 mph N/A   Scattered Clouds
5:53 PM 61.0 °F 46.9 °F 60% 30.04 in 10.0 mi NW 20.7 mph 31.1 mph N/A   Mostly Cloudy
6:53 PM 59.0 °F 46.0 °F 62% 30.06 in 10.0 mi NW 18.4 mph 24.2 mph N/A   Clear
7:53 PM 57.0 °F 45.0 °F 64% 30.08 in 10.0 mi NW 19.6 mph 24.2 mph N/A   Clear
8:53 PM 55.0 °F 44.1 °F 67% 30.11 in 10.0 mi NNW 13.8 mph 23.0 mph N/A   Clear
9:53 PM 54.0 °F 44.1 °F 69% 30.14 in 10.0 mi NNW 12.7 mph - N/A   Clear
10:53 PM 53.1 °F 43.0 °F 69% 30.17 in 10.0 mi NNW 9.2 mph - N/A   Clear
11:53 PM 53.1 °F 42.1 °F 66% 30.17 in 10.0 mi NNW 8.1 mph - N/A   Clear